Regional Weather Roundup
Issued by NWS Sioux Falls, SD

Home | Current Version | Previous Version | Text Only | Print | Product List | Glossary Off
Versions: 1 2 3 4 5 6 7 8 9 10 11 12 13 14 15 16 17 18 19 20 21 22 23 24 25 26 27 28 29 30 31 32 33 34 35 36 37 38 39 40 41 42 43 44 45 46 47 48 49 50

000
ASUS43 KFSD 010302
RWRFSD

WEATHER ROUNDUP FOR SE SOUTH DAKOTA/SW MINNESOTA/NW IOWA
NATIONAL WEATHER SERVICE SIOUX FALLS SD
1000 PM CDT SAT APR 30 2016

NOTE: "FAIR" INDICATES FEW OR NO CLOUDS BELOW 12,000 FEET WITH NO
SIGNIFICANT WEATHER AND OR OBSTRUCTIONS TO VISIBILITY.


SDZ038>040-050-052>070-010400-
SOUTHEAST SOUTH DAKOTA

CITY           SKY/WX    TMP DP  RH WIND       PRES   REMARKS
BROOKINGS      CLOUDY    45  40  82 NE5       30.07R
CHAMBERLAIN    NOT AVBL
HURON          CLOUDY    50  38  63 NE12      30.10R
MADISON        LGT RAIN  41  41 100 NE8       30.07R
MITCHELL       LGT RAIN  45  42  89 NE10      30.10R
SIOUX FALLS    LGT RAIN  44  40  85 E14       30.05R
WINNER         LGT RAIN  43  39  86 NE16      30.11R
YANKTON        CLOUDY    43  39  87 NE26G33   30.00R
$$

MNZ071-072-080-081-089-090-097-098-010400-
SOUTHWEST MINNESOTA

CITY           SKY/WX    TMP DP  RH WIND       PRES   REMARKS
FAIRMONT       CLOUDY    43  34  70 NE20      30.05R
JACKSON        LGT RAIN  43  41  93 E17       30.05R
LUVERNE        CLOUDY    43  37  81 E15G24    30.05R
MARSHALL       CLOUDY    47  41  80 E5        30.09R
MONTEVIDEO     CLOUDY    48  34  57 E15       30.13R
REDWOOD FALLS  CLOUDY    51  33  50 NE10G18   30.08R
TRACY          RAIN      45  43  93 E7        30.08R
WINDOM         LGT RAIN  45  43  93 E14       30.06R
WORTHINGTON    LGT RAIN  42  40  92 NE15      30.05R
$$

IAZ001>003-012>014-020>022-031-032-NEZ013-014-SDZ071-010400-
NORTHWEST IOWA

CITY           SKY/WX    TMP DP  RH WIND       PRES   REMARKS
DENISON        CLOUDY    45  45 100 E20G29    29.88R FOG
ESTHERVILLE    LGT RAIN  42  41  96 NE22      30.02R
LE MARS        CLOUDY    45  43  93 NE20G28   29.99R FOG
SIOUX CITY     LGT RAIN  46  42  86 NE22G30   29.93R
SPENCER        LGT RAIN  43  39  86 NE28G36   30.00R
STORM LAKE     CLOUDY    43  43 100 E26G36    29.96R FOG
$$

ABBREVIATIONS USED IN REMARKS
   TC - TEMPERATURE IN CELSIUS
  WCI - WIND CHILL INDEX
   HX - HEAT INDEX
  VSB - VISIBILITY




USA.gov is the U.S. government's official web portal to all federal, state and local government web resources and services.